DW0156 Weather Reports


time (UTC)temp
C
wind
direction
speed
KPH
gust
KPH
rain 1hr
cm
rain 24hr
cm
rain mn
cm
humidity
%
barometer
mb
20260901075221 15 263 3.2 9.7 0.00 0.28 0.28 87 1014.4
20260901074057 15 263 3.2 12.9 0.00 0.28 0.28 87 1014.3
20260901073601 15 263 3.2 14.5 0.00 0.28 0.28 87 1014.3
20260901073044 15 263 4.8 14.5 0.00 0.28 0.28 87 1014.3
20260901072528 15 263 4.8 16.1 0.00 0.28 0.28 86 1014.3
20260901072013 15 263 4.8 16.1 0.00 0.28 0.28 86 1014.3
20260901071459 15 263 6.4 16.1 0.00 0.28 0.28 86 1014.3
20260901070958 15 263 6.4 19.3 0.00 0.28 0.28 86 1014.3
20260901070451 15 263 4.8 19.3 0.08 0.28 0.28 85 1014.3
20260901065345 15 263 6.4 19.3 0.30 0.25 0.28 84 1014.9
20260901064205 16 263 3.2 8.0 0.30 0.20 0.23 82 1016.0
20260901063714 16 263 0.0 6.4 0.18 0.18 0.20 80 1016.0
20260901063212 16 263 0.0 3.2 0.36 0.18 0.18 79 1016.0
20260901062718 16 263 0.0 3.2 0.23 0.15 0.18 78 1016.1
20260901062208 16 263 0.0 0.0 0.25 0.13 0.15 76 1016.1
20260901061701 16 263 0.0 1.6 0.25 0.10 0.10 75 1016.1
20260901061200 17 263 0.0 1.6 0.28 0.08 0.08 74 1016.1
20260901060659 17 263 0.0 1.6 0.28 0.08 0.08 73 1016.1
20260901060141 17 263 1.6 0.0 0.33 0.05 0.05 72 1016.1
20260901055638 17 263 4.8 14.5 0.00 0.00 0.00 71 1016.4
20260901055118 17 263 8.0 30.6 0.00 0.00 0.00 69 1016.4
20260901053326 19 263 12.9 29.0 0.00 0.00 0.00 60 1015.8
20260901052815 20 263 9.7 29.0 0.00 0.00 0.00 57 1015.4
20260901052310 20 263 4.8 20.9 0.00 0.00 0.00 55 1015.4
20260901051814 20 263 3.2 14.5 0.00 0.00 0.00 55 1015.4
20260901051306 20 263 4.8 14.5 0.00 0.00 0.00 54 1015.0
20260901050759 20 263 3.2 16.1 0.00 0.00 0.00 54 1015.0
20260901050256 20 263 3.2 16.1 0.00 0.00 0.00 54 1015.0
20260901045806 20 263 3.2 22.5 0.00 0.00 0.00 54 1015.2
20260901045247 20 263 1.6 22.5 0.00 0.00 0.00 55 1015.2
20260901044755 20 263 3.2 22.5 0.00 0.00 0.00 55 1015.2
20260901044258 20 263 3.2 22.5 0.00 0.00 0.00 54 1015.3
20260901043759 20 263 3.2 19.3 0.00 0.00 0.00 54 1015.3
20260901043308 20 263 4.8 19.3 0.00 0.00 0.00 53 1015.3
20260901042132 20 263 4.8 19.3 0.00 0.00 0.00 52 1014.8
20260901041625 20 263 3.2 9.7 0.00 0.00 0.00 52 1014.8
20260901041133 20 263 3.2 9.7 0.00 0.00 0.00 52 1015.2
20260901040613 20 263 1.6 14.5 0.00 0.00 0.00 53 1015.2
20260901040111 20 263 3.2 14.5 0.00 0.00 0.00 53 1015.2
20260901035552 20 263 6.4 24.1 0.00 0.00 0.00 52 1015.2
20260901034428 20 263 6.4 24.1 0.00 0.00 0.00 52 1015.2
20260901033920 20 263 4.8 16.1 0.00 0.00 0.00 52 1015.4
20260901033414 20 263 6.4 25.7 0.00 0.00 0.00 52 1015.4
20260901032915 20 263 6.4 25.7 0.00 0.00 0.00 51 1015.4
20260901031741 20 263 9.7 22.5 0.00 0.00 0.00 51 1015.5
20260901031241 20 263 9.7 22.5 0.00 0.00 0.00 50 1016.0
20260901030724 20 263 8.0 29.0 0.00 0.00 0.00 50 1016.0
20260901030225 20 263 6.4 29.0 0.00 0.00 0.00 49 1016.0
20260901025733 20 263 6.4 29.0 0.00 0.00 0.00 49 1016.3
20260901024616 21 263 8.0 22.5 0.00 0.00 0.00 47 1016.3
20260901024115 21 263 8.0 25.7 0.00 0.00 0.00 46 1016.2
20260901023607 21 263 8.0 25.7 0.00 0.00 0.00 46 1016.2
20260901023109 21 263 8.0 27.4 0.00 0.00 0.00 46 1016.2
20260901022555 21 263 6.4 27.4 0.00 0.00 0.00 46 1016.3
20260901022037 21 263 9.7 27.4 0.00 0.00 0.00 47 1016.3
20260901021518 21 263 9.7 27.4 0.00 0.00 0.00 47 1016.3
20260901021003 21 263 6.4 19.3 0.00 0.00 0.00 48 1016.9
20260901020508 20 263 6.4 19.3 0.00 0.00 0.00 49 1016.9
20260901020003 20 263 4.8 17.7 0.00 0.00 0.00 50 1016.9
20260901015506 20 263 4.8 17.7 0.00 0.00 0.00 51 1017.0
20260901015014 19 263 6.4 17.7 0.00 0.00 0.00 51 1017.0
20260901014504 19 263 6.4 17.7 0.00 0.00 0.00 51 1017.0
20260901013346 19 263 4.8 19.3 0.00 0.00 0.00 51 1017.3
20260901012834 19 263 6.4 19.3 0.00 0.00 0.00 51 1016.9
20260901012334 18 263 8.0 24.1 0.00 0.00 0.00 51 1016.9
20260901011822 18 263 8.0 24.1 0.00 0.00 0.00 52 1016.9
20260901011319 18 263 9.7 24.1 0.00 0.00 0.00 52 1017.6
20260901010208 18 263 6.4 20.9 0.00 0.00 0.00 51 1017.6
20260901005705 18 263 4.8 20.9 0.00 0.00 0.00 51 1018.0
20260901005211 18 263 3.2 17.7 0.00 0.00 0.00 51 1018.0
20260901004710 18 263 4.8 17.7 0.00 0.00 0.00 51 1018.0
20260901004217 18 263 4.8 20.9 0.00 0.00 0.00 51 1017.6
20260901003725 18 263 6.4 20.9 0.00 0.00 0.00 51 1017.6
20260901003218 18 263 6.4 20.9 0.00 0.00 0.00 51 1017.6
20260901002716 18 263 6.4 20.9 0.00 0.00 0.00 50 1017.8
20260901002217 18 263 6.4 25.7 0.00 0.00 0.00 50 1017.8
20260901001715 18 263 4.8 25.7 0.00 0.00 0.00 50 1017.8
20260901001158 18 263 8.0 25.7 0.00 0.00 0.00 50 1018.0
20260901000700 18 263 9.7 25.7 0.00 0.00 0.00 49 1018.0
20260901000204 19 263 6.4 24.1 0.00 0.00 0.00 48 1018.0
20260831235648 19 263 8.0 24.1 0.00 0.00 0.00 48 1018.0
20260831235146 19 263 8.0 24.1 0.00 0.00 0.00 47 1018.0
20260831234635 19 263 8.0 22.5 0.00 0.00 0.00 48 1018.0
20260831234127 19 263 8.0 22.5 0.00 0.00 0.00 48 1018.3
20260831233617 18 263 4.8 17.7 0.00 0.00 0.00 50 1018.3
20260831233118 18 263 4.8 17.7 0.00 0.00 0.00 50 1018.3
20260831232603 18 263 4.8 17.7 0.00 0.00 0.00 51 1018.5
20260831232047 18 263 4.8 17.7 0.00 0.00 0.00 51 1018.5
20260831231547 17 263 4.8 16.1 0.00 0.00 0.00 52 1018.5
20260831231039 17 263 3.2 16.1 0.00 0.00 0.00 52 1018.5
20260831230525 17 263 1.6 11.3 0.00 0.00 0.00 52 1018.5
20260831230031 17 263 3.2 11.3 0.00 0.00 0.00 52 1018.5
20260831225514 17 263 3.2 16.1 0.00 0.00 0.00 53 1018.2
20260831225022 17 263 4.8 16.1 0.00 0.00 0.00 53 1018.2
20260831224523 17 263 4.8 17.7 0.00 0.00 0.00 53 1018.2
20260831223355 17 263 6.4 19.3 0.00 0.00 0.00 54 1018.5
20260831222857 17 263 6.4 19.3 0.00 0.00 0.00 54 1018.5
20260831222358 17 263 4.8 19.3 0.00 0.00 0.00 54 1018.5
20260831221226 17 263 4.8 17.7 0.00 0.00 0.00 55 1018.7
20260831220726 16 263 3.2 14.5 0.00 0.00 0.00 55 1018.7
20260831220215 16 263 3.2 8.0 0.00 0.00 0.00 56 1018.7
20260831213811 15 263 4.8 12.9 0.00 0.00 0.00 59 1018.5
20260831213307 15 263 3.2 12.9 0.00 0.00 0.00 61 1018.5
20260831211518 14 263 4.8 12.9 0.00 0.00 0.00 62 1018.5
20260831210959 14 263 4.8 12.9 0.00 0.00 0.00 62 1018.6
20260831210508 14 263 3.2 12.9 0.00 0.00 0.00 62 1018.6
20260831210009 14 263 3.2 14.5 0.00 0.00 0.00 62 1018.6
20260831205457 14 263 4.8 14.5 0.00 0.00 0.00 62 1018.6
20260831204335 14 263 3.2 14.5 0.00 0.00 0.00 63 1018.7
20260831203839 13 263 3.2 11.3 0.00 0.00 0.00 63 1018.7
20260831203329 13 263 3.2 11.3 0.00 0.00 0.00 63 1018.7
20260831202823 13 263 3.2 11.3 0.00 0.00 0.00 63 1018.6
20260831202332 13 263 3.2 9.7 0.00 0.00 0.00 63 1018.6
20260831201153 13 263 3.2 12.9 0.00 0.00 0.00 62 1018.8
20260831200645 13 263 3.2 12.9 0.00 0.00 0.00 62 1018.8
20260831200129 13 263 3.2 12.9 0.00 0.00 0.00 62 1018.8
20260831195612 14 263 3.2 11.3 0.00 0.00 0.00 62 1018.9
20260831195107 14 263 3.2 9.7 0.00 0.00 0.00 62 1018.9
20260831194549 14 263 3.2 9.7 0.00 0.00 0.00 62 1018.9
20260831193419 14 263 3.2 14.5 0.00 0.00 0.00 61 1019.0
20260831192913 14 263 3.2 14.5 0.00 0.00 0.00 61 1019.0
20260831192420 14 263 3.2 14.5 0.00 0.00 0.00 62 1019.0
20260831191920 13 263 3.2 12.9 0.00 0.00 0.00 62 1019.0
20260831191407 13 263 3.2 9.7 0.00 0.00 0.00 62 1019.0
20260831190908 13 263 1.6 9.7 0.00 0.00 0.00 62 1019.1
20260831190412 13 263 1.6 9.7 0.00 0.00 0.00 61 1019.1
20260831185900 13 263 1.6 9.7 0.00 0.00 0.00 61 1019.2
20260831185352 14 263 3.2 9.7 0.00 0.00 0.00 61 1019.2
20260831184836 14 263 3.2 9.7 0.00 0.00 0.00 61 1019.2
20260831184342 14 263 3.2 9.7 0.00 0.00 0.00 60 1019.4
20260831183830 14 263 3.2 9.7 0.00 0.00 0.00 60 1019.4
20260831182719 14 263 3.2 11.3 0.00 0.00 0.00 60 1019.6
20260831182221 14 263 4.8 14.5 0.00 0.00 0.00 60 1019.6
20260831181703 14 263 3.2 14.5 0.00 0.00 0.00 60 1019.6
20260831181205 14 263 4.8 14.5 0.00 0.00 0.00 59 1019.7
20260831180649 14 263 4.8 14.5 0.00 0.00 0.00 59 1019.7
20260831180133 14 263 4.8 11.3 0.00 0.00 0.00 59 1019.7
20260831175633 14 263 3.2 11.3 0.00 0.00 0.00 59 1020.0
20260831175125 14 263 3.2 14.5 0.00 0.00 0.00 59 1020.0
20260831174604 14 263 3.2 14.5 0.00 0.00 0.00 59 1020.0
20260831174045 14 263 4.8 14.5 0.00 0.00 0.00 59 1020.0
20260831173526 14 263 4.8 14.5 0.00 0.00 0.00 59 1020.0
20260831173005 14 263 3.2 11.3 0.00 0.00 0.00 59 1020.0
20260831172504 14 263 3.2 11.3 0.00 0.00 0.00 59 1020.1
20260831171950 14 263 3.2 12.9 0.00 0.00 0.00 59 1020.1
20260831171458 14 263 3.2 12.9 0.00 0.00 0.00 59 1020.1
20260831170325 14 263 3.2 12.9 0.00 0.00 0.00 60 1020.4
20260831165816 14 263 1.6 8.0 0.00 0.00 0.00 60 1020.6
20260831165323 14 263 1.6 6.4 0.00 0.00 0.00 59 1020.6
20260831164829 14 263 1.6 6.4 0.00 0.00 0.00 59 1020.6
20260831164326 14 263 1.6 6.4 0.00 0.00 0.00 59 1020.8
20260831163834 14 263 1.6 6.4 0.00 0.00 0.00 58 1020.8
20260831163326 15 263 1.6 4.8 0.00 0.00 0.00 58 1020.8
20260831162833 15 263 1.6 8.0 0.00 0.00 0.00 58 1021.0
20260831162334 15 263 1.6 8.0 0.00 0.00 0.00 58 1021.0
20260831161825 15 263 3.2 17.7 0.00 0.00 0.00 57 1021.0
20260831160646 15 263 3.2 17.7 0.00 0.00 0.00 57 1021.2
20260831160141 15 263 3.2 12.9 0.00 0.00 0.00 58 1021.2
20260831155622 15 263 3.2 9.7 0.00 0.00 0.00 57 1021.5
20260831155123 15 263 1.6 9.7 0.00 0.00 0.00 57 1021.5
20260831154607 15 263 1.6 9.7 0.00 0.00 0.00 57 1021.5
20260831154057 15 263 1.6 9.7 0.00 0.00 0.00 57 1021.8
20260831153558 15 263 1.6 8.0 0.00 0.00 0.00 56 1021.8
20260831153058 15 263 1.6 8.0 0.00 0.00 0.00 56 1021.8
20260831152555 15 263 3.2 12.9 0.00 0.00 0.00 56 1022.0
20260831152104 15 263 3.2 12.9 0.00 0.00 0.00 55 1022.0
20260831150922 15 263 3.2 12.9 0.00 0.00 0.00 55 1022.1
20260831150410 15 263 3.2 9.7 0.00 0.00 0.00 56 1022.1
20260831145904 15 263 3.2 12.9 0.00 0.00 0.00 56 1022.2
20260831145348 15 263 3.2 12.9 0.00 0.00 0.00 56 1022.2
20260831144217 15 263 3.2 12.9 0.00 0.00 0.00 56 1022.3
20260831143724 15 263 3.2 9.7 0.00 0.00 0.00 56 1022.3
20260831142547 14 263 3.2 12.9 0.00 0.00 0.00 57 1022.6
20260831142028 14 263 3.2 12.9 0.00 0.00 0.00 57 1022.6
20260831140928 14 263 1.6 9.7 0.00 0.00 0.00 59 1022.8
20260831140422 13 263 1.6 8.0 0.00 0.00 0.00 60 1022.8
20260831135924 13 263 1.6 8.0 0.00 0.00 0.00 60 1022.8
20260831135419 13 263 1.6 8.0 0.00 0.00 0.00 61 1023.2
20260831134919 13 263 1.6 8.0 0.00 0.00 0.00 61 1023.2
20260831134401 13 263 0.0 6.4 0.00 0.00 0.00 62 1023.4
20260831133853 13 263 0.0 6.4 0.00 0.00 0.00 62 1023.4
20260831132726 13 263 0.0 4.8 0.00 0.00 0.00 62 1023.8
20260831132229 13 263 1.6 4.8 0.00 0.00 0.00 63 1023.8
20260831131055 13 263 0.0 3.2 0.00 0.00 0.00 62 1023.8
20260831130548 13 263 0.0 3.2 0.00 0.00 0.00 62 1023.8
20260831130035 13 263 0.0 9.7 0.00 0.00 0.00 63 1023.8
20260831124902 13 263 1.6 9.7 0.00 0.00 0.00 68 1023.8
20260831124342 13 263 1.6 6.4 0.00 0.00 0.00 68 1023.8
20260831123834 13 263 1.6 6.4 0.00 0.00 0.00 68 1023.8
20260831123332 13 263 1.6 6.4 0.00 0.00 0.00 68 1023.8
20260831122819 13 263 1.6 6.4 0.00 0.00 0.00 68 1023.9
20260831122312 13 263 1.6 6.4 0.00 0.00 0.00 69 1023.9
20260831121817 12 263 0.0 6.4 0.00 0.00 0.00 70 1023.9
20260831121308 12 263 0.0 4.8 0.00 0.00 0.00 71 1023.9
20260831120813 12 263 0.0 4.8 0.00 0.00 0.00 71 1023.9
20260831120309 12 263 0.0 1.6 0.00 0.00 0.00 71 1023.9
20260831115115 13 263 0.0 0.0 0.00 0.00 0.00 70 1024.0
20260831114601 13 263 0.0 1.6 0.00 0.00 0.00 70 1024.0
20260831114057 13 263 0.0 0.0 0.00 0.00 0.00 70 1024.1
20260831113544 13 263 0.0 3.2 0.00 0.00 0.00 71 1024.1
20260831112409 13 263 0.0 1.6 0.00 0.00 0.00 72 1024.3
20260831111859 13 263 1.6 1.6 0.00 0.00 0.00 72 1024.3
20260831111348 13 263 1.6 1.6 0.00 0.00 0.00 72 1024.3
20260831110200 13 263 0.0 3.2 0.00 0.00 0.00 73 1024.3
20260831105700 13 263 0.0 3.2 0.00 0.00 0.00 73 1024.4
20260831105202 13 263 0.0 3.2 0.00 0.00 0.00 73 1024.4
20260831104651 13 263 0.0 3.2 0.00 0.00 0.00 73 1024.4
20260831104149 13 263 0.0 0.0 0.00 0.00 0.00 73 1024.4
20260831103650 13 263 0.0 1.6 0.00 0.00 0.00 73 1024.4
20260831103140 13 263 0.0 3.2 0.00 0.00 0.00 73 1024.4
20260831102640 13 263 0.0 3.2 0.00 0.00 0.00 73 1024.8
20260831102129 13 263 0.0 0.0 0.00 0.00 0.00 73 1024.8
20260831100957 14 263 0.0 0.0 0.00 0.00 0.00 73 1024.9
20260831095226 15 263 0.0 0.0 0.00 0.00 0.00 72 1024.9
20260831094053 15 263 0.0 0.0 0.00 0.00 0.00 70 1024.9
20260831093543 15 263 0.0 0.0 0.00 0.00 0.00 70 1024.9
20260831093038 16 263 0.0 0.0 0.00 0.00 0.00 70 1024.9
20260831092527 16 263 0.0 0.0 0.00 0.00 0.00 69 1024.9
20260831092026 16 263 0.0 0.0 0.00 0.00 0.00 68 1024.9
20260831091517 16 263 0.0 0.0 0.00 0.00 0.00 67 1024.9
20260831091002 16 263 0.0 0.0 0.00 0.00 0.00 67 1024.9
20260831090445 16 263 0.0 0.0 0.00 0.00 0.00 67 1024.9
20260831085946 17 263 0.0 0.0 0.00 0.00 0.00 66 1024.9
20260831085435 17 263 0.0 0.0 0.00 0.00 0.00 65 1025.0
20260831084930 17 263 0.0 0.0 0.00 0.00 0.00 64 1025.0
20260831083816 18 263 0.0 0.0 0.00 0.00 0.00 62 1025.1
20260831082631 18 263 0.0 0.0 0.00 0.00 0.00 61 1025.2
20260831082113 18 263 0.0 0.0 0.00 0.00 0.00 61 1025.2
20260831081555 18 263 0.0 4.8 0.00 0.00 0.00 61 1025.2
20260831081042 18 263 1.6 6.4 0.00 0.00 0.00 60 1025.1
20260831080535 18 263 1.6 6.4 0.00 0.00 0.00 60 1025.1
20260831080026 19 263 3.2 6.4 0.00 0.00 0.00 59 1025.1
20260831075529 19 263 1.6 6.4 0.00 0.00 0.00 59 1024.9